Temp
-18 -18 -17 -18 -18 -17 -17 -17 -16 -16 -16 -15 -15 -14 -14 -14 -14 -14 -13 -13 -13 -12 -12 -12 -11 -11 -11 -10 -10 -10 -10 -10 -9 -9 -9 -9 -9 -10 -10 -10 -10 -10 -10 -10
-18 -18 -18 -18 -18 -18 -17 -17 -17 -16 -16 -15 -15 -14 -14 -14 -14 -14 -13 -13 -13 -13 -12 -12 -12 -11 -11 -11 -10 -10 -10 -10 -9 -9 -9 -8 -9 -9 -10 -10 -10 -10 -10 -10
-18 -18 -19 -18 -18 -18 -17 -17 -16 -16 -16 -15 -15 -14 -14 -14 -14 -14 -13 -13 -13 -13 -12 -12 -12 -11 -11 -11 -10 -10 -10 -10 -9 -9 -9 -9 -8 -8 -9 -10 -10 -11 -11 -10
-19 -19 -18 -18 -18 -17 -17 -17 -16 -16 -16 -16 -16 -14 -15 -16 -16 -16 -16 -15 -15 -15 -14 -13 -12 -11 -11 -11 -10 -10 -9 -9 -9 -9 -9 -9 -9 -9 -9 -10 -10 -11 -11 -11
-19 -18 -18 -18 -18 -18 -18 -18 -18 -18 -18 -17 -18 -17 -17 -17 -17 -17 -17 -16 -16 -16 -16 -15 -15 -15 -14 -12 -11 -10 -10 -9 -9 -10 -10 -10 -9 -9 -10 -10 -10 -10 -10 -10
-19 -19 -19 -19 -19 -19 -19 -18 -18 -18 -19 -18 -18 -18 -18 -18 -18 -17 -17 -17 -17 -16 -16 -16 -15 -15 -14 -14 -13 -13 -12 -11 -11 -11 -10 -11 -11 -11 -10 -10 -10 -10 -10 -10
-20 -20 -19 -19 -19 -19 -19 -20 -19 -19 -19 -18 -18 -17 -18 -17 -17 -17 -17 -17 -17 -17 -16 -16 -15 -15 -14 -14 -13 -13 -13 -13 -12 -12 -12 -12 -12 -11 -11 -11 -11 -11 -10 -10
-20 -20 -20 -20 -20 -20 -20 -19 -19 -19 -19 -18 -18 -17 -17 -17 -17 -17 -16 -17 -18 -18 -18 -16 -16 -15 -15 -15 -14 -14 -14 -14 -14 -14 -13 -13 -12 -12 -11 -11 -11 -11 -11 -10
-20 -20 -20 -20 -20 -19 -19 -19 -19 -19 -19 -18 -17 -17 -17 -17 -16 -16 -16 -17 -17 -17 -18 -17 -17 -15 -14 -14 -15 -15 -15 -15 -14 -13 -13 -13 -13 -13 -13 -13 -13 -12 -11 -11
-20 -20 -20 -19 -19 -19 -19 -19 -19 -19 -19 -18 -17 -17 -16 -16 -16 -15 -15 -16 -16 -16 -16 -17 -16 -16 -15 -15 -15 -14 -14 -14 -13 -13 -13 -14 -14 -13 -13 -13 -13 -13 -13 -12
-20 -20 -20 -20 -20 -19 -19 -19 -19 -18 -18 -18 -17 -17 -16 -16 -15 -15 -15 -15 -15 -15 -15 -15 -15 -15 -15 -14 -14 -14 -14 -14 -13 -13 -13 -13 -14 -15 -15 -15 -15 -14 -14 -14
-20 -20 -20 -20 -20 -20 -19 -19 -19 -18 -18 -18 -17 -17 -17 -16 -15 -15 -15 -15 -15 -15 -15 -15 -14 -14 -14 -14 -14 -14 -14 -14 -13 -13 -14 -15 -16 -17 -17 -18 -18 -18 -18 -17
-20 -20 -20 -20 -20 -19 -19 -18 -18 -18 -17 -17 -17 -17 -16 -16 -16 -15 -15 -15 -15 -15 -15 -15 -15 -15 -15 -14 -14 -13 -12 -12 -13 -13 -14 -14 -14 -16 -19 -20 -20 -20 -20 -20
-20 -20 -19 -20 -19 -20 -19 -18 -17 -17 -16 -16 -16 -16 -16 -16 -15 -15 -15 -15 -15 -15 -15 -15 -15 -15 -15 -14 -13 -12 -12 -12 -13 -13 -13 -14 -15 -18 -19 -21 -21 -21 -21 -20
-19 -19 -19 -19 -19 -19 -18 -17 -17 -16 -16 -16 -16 -16 -16 -15 -15 -15 -15 -15 -15 -15 -15 -14 -14 -15 -15 -14 -13 -12 -12 -13 -14 -14 -15 -14 -15 -16 -19 -19 -20 -20 -20 -20
-19 -19 -18 -18 -18 -18 -17 -17 -16 -16 -16 -15 -15 -15 -15 -15 -15 -15 -15 -15 -15 -15 -15 -15 -14 -14 -14 -14 -14 -13 -14 -15 -15 -14 -14 -15 -15 -16 -17 -19 -19 -19 -20 -19
-18 -18 -17 -17 -17 -16 -16 -15 -15 -15 -15 -15 -15 -15 -15 -15 -15 -15 -15 -15 -15 -15 -14 -14 -14 -14 -14 -13 -14 -14 -15 -14 -15 -15 -14 -14 -15 -16 -16 -17 -17 -17 -18 -19
-18 -17 -16 -16 -15 -15 -15 -14 -14 -14 -14 -15 -15 -15 -14 -15 -15 -14 -15 -15 -15 -15 -15 -15 -15 -15 -15 -15 -15 -14 -15 -15 -15 -16 -16 -15 -15 -15 -16 -15 -16 -16 -16 -16
-16 -15 -14 -14 -14 -14 -14 -14 -14 -14 -14 -14 -15 -15 -15 -14 -15 -14 -15 -14 -14 -14 -14 -14 -14 -14 -15 -15 -14 -14 -15 -14 -15 -15 -15 -15 -15 -15 -15 -16 -15 -16 -17 -16
-15 -14 -13 -13 -13 -13 -13 -13 -14 -14 -14 -14 -14 -15 -15 -15 -15 -14 -14 -14 -14 -14 -14 -14 -14 -14 -14 -14 -14 -14 -14 -14 -14 -14 -14 -14 -15 -15 -15 -15 -15 -15 -15 -16
-15 -14 -13 -13 -13 -13 -13 -13 -14 -14 -14 -14 -14 -15 -15 -14 -14 -14 -14 -14 -14 -14 -14 -14 -14 -14 -14 -14 -14 -14 -14 -14 -14 -14 -14 -14 -14 -14 -14 -15 -15 -15 -15 -15
-14 -14 -14 -14 -13 -13 -13 -13 -14 -14 -14 -14 -14 -14 -14 -14 -14 -14 -14 -14 -14 -14 -14 -14 -14 -14 -14 -14 -14 -14 -14 -14 -14 -14 -14 -14 -14 -14 -14 -14 -14 -14 -14 -14
-14 -13 -13 -13 -14 -14 -14 -14 -14 -14 -14 -14 -14 -14 -14 -14 -14 -14 -14 -14 -14 -14 -14 -14 -14 -14 -14 -14 -14 -14 -14 -14 -14 -14 -14 -14 -14 -14 -14 -14 -14 -14 -14 -14
-13 -13 -13 -13 -13 -13 -13 -13 -13 -14 -14 -14 -14 -14 -14 -14 -14 -14 -14 -14 -14 -14 -14 -14 -14 -14 -14 -13 -14 -14 -14 -14 -14 -14 -14 -14 -14 -14 -14 -14 -14 -14 -14 -14
-13 -13 -13 -13 -13 -13 -13 -13 -13 -13 -13 -13 -13 -13 -13 -13 -13 -13 -13 -13 -13 -13 -13 -13 -13 -13 -13 -13 -13 -13 -13 -13 -14 -14 -14 -14 -14 -14 -14 -14 -14 -14 -14 -14
-13 -13 -13 -13 -13 -13 -13 -13 -13 -13 -13 -13 -13 -13 -13 -13 -13 -13 -13 -13 -13 -13 -13 -13 -13 -13 -13 -13 -13 -14 -14 -14 -14 -14 -14 -14 -14 -14 -14 -14 -14 -14 -14 -14
Height
5676 5681 5685 5689 5693 5696 5699 5700 5701 5702 5703 5705 5705 5709 5708 5705 5707 5710 5712 5712 5713 5716 5718 5721 5723 5729 5733 5736 5738 5742 5746 5748 5752 5757 5762 5767 5772 5777 5781 5785 5791 5795 5798 5801
5674 5677 5682 5685 5689 5691 5692 5694 5694 5695 5695 5695 5694 5702 5694 5693 5693 5696 5697 5698 5699 5701 5701 5704 5705 5709 5716 5720 5724 5728 5732 5735 5738 5743 5748 5753 5759 5764 5769 5773 5776 5780 5785 5790
5671 5676 5678 5681 5683 5685 5687 5688 5688 5687 5686 5685 5684 5691 5686 5681 5680 5681 5681 5681 5681 5682 5684 5685 5687 5689 5695 5703 5708 5713 5717 5720 5724 5728 5733 5738 5743 5749 5755 5759 5765 5771 5774 5779
5669 5673 5675 5677 5679 5680 5679 5680 5680 5678 5677 5676 5673 5675 5675 5667 5668 5667 5666 5665 5664 5661 5662 5664 5667 5671 5674 5681 5688 5695 5700 5703 5707 5711 5716 5722 5728 5734 5741 5745 5751 5757 5761 5764
5667 5669 5671 5672 5673 5673 5673 5672 5672 5670 5669 5667 5665 5662 5666 5660 5658 5656 5654 5652 5649 5648 5647 5648 5649 5651 5653 5658 5667 5674 5679 5684 5688 5693 5699 5704 5710 5716 5721 5727 5734 5739 5746 5750
5663 5666 5668 5668 5668 5668 5668 5667 5665 5664 5662 5662 5660 5659 5659 5654 5652 5649 5646 5642 5638 5636 5635 5635 5635 5637 5640 5643 5649 5655 5659 5664 5669 5674 5682 5687 5693 5697 5702 5708 5714 5720 5727 5734
5662 5663 5664 5664 5664 5663 5663 5662 5662 5662 5660 5658 5656 5654 5654 5650 5646 5642 5639 5635 5629 5625 5623 5622 5623 5624 5627 5630 5634 5638 5644 5647 5652 5658 5664 5670 5675 5679 5684 5689 5693 5698 5705 5714
5661 5661 5661 5662 5660 5660 5659 5659 5660 5658 5657 5655 5654 5651 5649 5645 5641 5637 5633 5627 5621 5617 5612 5610 5611 5615 5619 5622 5624 5628 5631 5635 5639 5644 5650 5654 5658 5662 5665 5669 5673 5676 5684 5692
5658 5659 5659 5658 5658 5659 5658 5658 5657 5655 5654 5653 5651 5648 5646 5641 5638 5633 5628 5622 5617 5612 5605 5601 5603 5607 5610 5615 5619 5622 5624 5627 5631 5635 5638 5642 5644 5646 5648 5650 5653 5659 5663 5670
5658 5659 5659 5659 5658 5658 5657 5656 5655 5654 5653 5650 5648 5644 5640 5637 5634 5629 5625 5620 5614 5610 5605 5603 5601 5602 5604 5608 5611 5612 5614 5617 5620 5623 5625 5626 5628 5630 5631 5631 5635 5638 5642 5645
5660 5661 5661 5659 5657 5657 5656 5654 5653 5652 5651 5648 5645 5643 5639 5634 5632 5630 5627 5623 5618 5614 5611 5607 5606 5605 5606 5607 5606 5606 5606 5608 5612 5617 5618 5617 5615 5613 5609 5609 5612 5614 5617 5622
5661 5661 5660 5660 5658 5656 5655 5653 5652 5651 5650 5646 5644 5644 5638 5635 5634 5631 5629 5627 5623 5619 5616 5612 5609 5609 5609 5607 5605 5605 5605 5606 5609 5611 5610 5608 5601 5592 5586 5584 5585 5588 5592 5597
5663 5663 5662 5660 5659 5657 5655 5653 5651 5650 5648 5647 5646 5646 5641 5639 5636 5634 5633 5631 5628 5625 5621 5618 5615 5614 5611 5609 5606 5602 5603 5604 5606 5606 5605 5599 5589 5576 5572 5571 5570 5571 5575 5580
5665 5664 5663 5662 5660 5657 5655 5653 5652 5651 5650 5650 5649 5647 5645 5643 5640 5638 5638 5636 5634 5631 5628 5625 5622 5619 5615 5612 5606 5604 5603 5604 5607 5606 5602 5593 5582 5567 5563 5562 5562 5563 5564 5566
5666 5665 5664 5662 5660 5659 5657 5655 5655 5654 5654 5654 5653 5651 5649 5647 5645 5644 5643 5641 5639 5638 5635 5633 5630 5625 5621 5616 5611 5608 5607 5607 5608 5604 5597 5591 5582 5569 5563 5561 5559 5559 5560 5562
5667 5666 5664 5663 5661 5660 5659 5658 5658 5658 5658 5657 5656 5654 5653 5652 5650 5649 5648 5647 5645 5642 5641 5637 5634 5630 5628 5623 5617 5615 5613 5611 5607 5601 5595 5589 5583 5574 5567 5561 5560 5560 5559 5561
5666 5665 5664 5663 5662 5661 5662 5661 5661 5662 5661 5661 5660 5659 5656 5656 5654 5653 5652 5650 5648 5644 5641 5639 5637 5634 5633 5630 5627 5623 5618 5614 5610 5602 5594 5590 5585 5580 5573 5569 5563 5561 5561 5563
5666 5666 5665 5665 5663 5664 5664 5663 5665 5665 5665 5664 5663 5661 5660 5658 5657 5655 5653 5652 5650 5648 5645 5643 5643 5641 5637 5635 5634 5630 5624 5621 5616 5612 5604 5597 5591 5588 5584 5580 5576 5573 5572 5572
5670 5667 5668 5667 5667 5668 5666 5667 5667 5666 5667 5666 5665 5664 5663 5661 5660 5658 5658 5657 5656 5654 5651 5650 5650 5648 5644 5641 5640 5637 5632 5627 5625 5624 5617 5611 5604 5599 5597 5591 5590 5590 5588 5589
5674 5673 5672 5670 5669 5670 5670 5669 5670 5669 5668 5666 5663 5663 5664 5664 5664 5664 5662 5661 5660 5659 5657 5656 5655 5654 5651 5649 5646 5644 5640 5635 5631 5630 5627 5622 5617 5613 5608 5605 5605 5604 5604 5604
5680 5678 5676 5675 5673 5673 5672 5672 5671 5671 5672 5666 5664 5664 5666 5668 5668 5667 5666 5665 5664 5664 5663 5661 5660 5658 5655 5653 5651 5648 5644 5640 5636 5634 5632 5629 5625 5621 5618 5617 5615 5616 5617 5620
5686 5683 5681 5679 5677 5676 5675 5674 5675 5675 5673 5672 5670 5671 5672 5672 5673 5672 5671 5670 5669 5668 5667 5666 5664 5662 5660 5658 5655 5652 5649 5646 5642 5640 5637 5635 5633 5630 5628 5627 5626 5626 5627 5628
5690 5688 5686 5685 5683 5681 5680 5680 5679 5679 5678 5676 5676 5675 5675 5675 5675 5674 5673 5673 5672 5671 5670 5668 5666 5664 5662 5660 5658 5655 5652 5649 5646 5643 5640 5638 5636 5634 5633 5632 5631 5631 5631 5631
5693 5691 5690 5688 5686 5684 5684 5683 5683 5682 5682 5681 5680 5679 5678 5678 5677 5676 5675 5674 5673 5672 5670 5669 5667 5665 5663 5661 5659 5656 5654 5651 5648 5646 5643 5641 5639 5636 5634 5632 5631 5630 5629 5628
5694 5693 5692 5690 5688 5687 5686 5685 5684 5684 5683 5683 5682 5681 5680 5679 5678 5677 5676 5674 5673 5672 5670 5668 5666 5665 5663 5661 5658 5656 5654 5651 5649 5646 5644 5641 5639 5637 5635 5633 5631 5629 5627 5625
5693 5692 5691 5690 5689 5688 5687 5685 5685 5684 5683 5682 5681 5680 5679 5679 5677 5676 5674 5673 5671 5670 5668 5666 5664 5663 5661 5659 5656 5654 5652 5649 5647 5644 5642 5640 5637 5635 5633 5631 5629 5626 5624 5621
Wind_Speed
26 29 30 32 34 37 37 34 34 34 37 38 39 43 47 49 50 52 53 54 57 60 64 67 70 68 67 65 62 60 64 73 74 71 68 66 64 63 61 59 55 53 52 51
25 26 28 31 31 29 29 28 30 31 36 39 41 41 49 53 56 57 59 62 63 63 64 67 70 71 70 69 68 66 65 69 76 76 74 72 69 67 66 64 62 61 58 54
23 24 25 25 26 27 27 28 30 33 37 41 45 46 53 57 60 64 67 69 71 73 74 74 74 75 75 74 73 72 71 70 74 79 80 78 75 73 71 69 66 63 62 60
20 20 22 24 25 25 27 31 35 39 42 42 44 51 48 50 51 51 57 59 58 59 64 72 77 79 81 79 78 76 75 74 75 79 82 83 81 78 75 73 71 69 68 67
16 18 21 24 25 27 30 32 34 34 32 30 29 36 31 29 32 34 35 38 43 49 51 53 58 62 67 73 72 73 73 74 76 80 82 84 85 84 82 80 78 76 74 73
16 19 22 23 25 26 24 21 19 19 19 18 19 20 14 22 23 27 27 32 35 37 37 39 47 53 53 58 62 62 65 69 73 77 80 82 85 87 87 86 84 82 80 78
13 14 16 15 15 12 14 11 11 13 13 15 16 19 16 17 20 23 24 27 34 37 39 36 35 40 45 51 53 53 53 56 64 69 71 72 77 84 89 90 89 88 87 85
6 8 9 10 8 10 9 7 9 12 13 15 14 12 12 14 15 13 14 20 23 26 33 39 39 34 32 38 42 43 43 47 52 58 62 65 68 73 80 87 92 94 93 92
8 6 3 3 3 3 5 8 11 12 11 8 7 7 5 3 9 10 11 10 7 8 12 20 31 35 30 26 31 34 34 34 39 48 55 60 64 67 70 74 80 85 91 94
7 6 5 4 2 3 3 5 5 4 4 5 4 3 14 5 8 18 20 21 21 21 18 13 4 13 25 27 27 27 32 35 38 44 50 52 55 61 66 72 78 82 86 89
9 7 5 5 4 3 4 5 5 7 6 2 8 13 11 23 21 20 19 19 22 23 19 16 12 11 5 3 2 2 6 14 15 6 18 29 37 48 61 72 78 79 81 85
9 8 9 9 6 7 7 5 8 8 7 9 10 11 21 21 20 18 23 25 21 23 27 17 9 3 3 4 8 6 9 10 9 6 14 26 39 45 52 56 57 67 77 82
13 14 12 9 8 10 9 9 11 12 14 14 13 13 15 20 21 22 22 22 28 26 29 27 17 15 14 9 5 9 10 9 10 8 14 21 24 32 36 35 42 48 54 60
12 9 8 9 10 10 14 15 14 16 16 15 13 14 13 18 17 20 17 20 23 22 27 31 27 20 20 16 14 12 7 6 10 13 17 23 29 22 26 27 29 36 43 50
7 7 7 7 8 10 12 15 16 16 15 14 14 15 15 20 20 18 18 20 19 24 23 21 21 20 27 28 21 21 20 14 2 7 10 10 13 13 7 8 7 8 9 13
5 6 7 7 9 11 13 16 17 15 15 15 16 19 19 14 18 16 17 16 14 17 18 17 21 19 19 26 23 26 32 30 25 20 9 11 20 29 12 13 9 5 6 4
5 6 8 8 11 12 14 17 14 15 14 16 17 15 13 13 13 13 12 13 13 13 15 15 17 16 14 15 21 20 26 25 29 37 22 19 27 22 21 25 30 31 27 20
7 8 11 11 12 11 13 13 13 13 13 13 12 16 16 12 11 11 14 14 14 20 23 27 31 32 36 30 30 36 40 38 35 48 50 42 29 30 50 44 33 22 20 24
12 11 12 12 13 11 11 10 10 10 12 11 11 10 11 10 11 13 23 26 26 27 28 29 25 26 26 30 29 29 31 35 36 42 45 48 51 53 49 44 33 39 52 53
16 13 12 12 11 11 7 6 9 8 8 8 9 5 7 10 21 22 22 21 22 23 23 22 22 22 23 24 24 23 25 28 30 29 30 32 34 36 38 37 39 39 35 33
17 16 15 13 11 9 8 7 9 11 13 15 13 10 13 18 18 19 19 19 18 17 17 17 16 17 18 19 21 20 22 24 25 25 25 27 28 29 29 28 29 27 26 23
17 17 16 13 12 13 10 11 15 17 18 21 22 20 18 17 16 15 15 14 13 13 13 13 13 14 16 17 18 19 19 19 19 19 19 20 21 22 22 21 20 19 17 15
13 15 15 14 15 15 14 12 12 13 14 17 16 16 15 14 13 11 10 10 9 9 10 11 12 13 14 15 15 15 15 15 16 16 17 17 17 17 17 16 16 15 15 14
8 9 9 11 11 11 12 11 11 12 11 11 11 9 8 6 5 5 4 5 6 8 9 12 13 13 13 13 14 15 16 15 16 16 16 16 17 17 17 18 19 19 19 19
3 1 1 3 4 4 4 4 5 5 4 2 2 3 5 5 5 6 7 8 10 11 13 15 15 15 15 15 15 16 16 17 17 18 18 18 19 19 19 19 21 22 23 24
10 9 8 7 6 6 6 6 6 6 6 7 9 9 10 11 12 12 13 14 15 15 16 17 18 18 19 20 20 20 20 20 21 21 21 21 22 21 21 23 24 26 28 30
Wind_Direction
237 236 237 238 240 247 250 250 253 256 259 261 260 259 260 262 263 260 261 262 261 260 260 259 257 256 255 255 255 257 254 250 249 246 244 245 247 248 249 250 250 251 252 253
233 235 238 242 240 240 244 249 254 258 263 265 264 260 262 265 266 266 266 268 269 266 261 260 259 257 255 254 255 256 257 255 250 248 246 244 244 246 249 250 250 250 249 249
237 234 231 232 235 240 248 258 267 271 274 274 269 265 271 273 274 274 274 272 270 268 264 263 262 258 257 256 256 256 257 256 252 249 248 247 245 244 245 248 249 250 252 252
208 218 228 235 240 247 260 269 273 275 276 276 278 273 275 273 272 272 270 267 263 260 262 263 262 261 260 259 258 257 255 253 251 249 248 248 248 248 246 246 246 247 249 251
221 233 238 247 256 262 266 267 273 277 278 278 279 283 275 272 271 270 271 270 266 264 263 260 257 253 254 257 257 255 251 248 248 247 246 246 247 248 248 248 247 246 246 247
231 242 253 259 263 266 270 275 272 272 274 275 269 280 271 273 275 271 265 262 264 261 258 256 255 251 253 256 257 256 252 247 246 246 245 246 246 247 248 249 249 248 247 247
244 254 260 261 255 242 244 250 262 258 265 281 280 279 280 277 277 278 275 270 269 269 266 262 250 244 250 250 250 252 250 247 245 244 245 247 248 248 247 248 249 250 250 249
211 227 218 225 243 249 252 250 261 279 275 276 272 279 276 277 273 287 311 292 282 265 265 256 260 260 251 245 246 250 249 245 243 244 246 248 247 248 248 248 248 249 249 250
158 163 195 232 223 234 239 259 265 269 272 269 263 275 260 34 17 351 355 4 330 311 294 261 251 257 262 255 248 248 251 252 253 252 251 250 250 250 250 249 249 249 249 249
130 125 128 119 169 236 258 254 246 238 227 221 214 43 63 32 33 35 36 28 31 39 45 37 26 254 250 257 262 262 255 250 249 251 254 254 255 256 256 255 252 249 249 248
123 131 130 123 133 138 159 172 165 156 156 99 69 64 62 54 56 45 31 26 43 49 30 22 26 39 47 73 15 297 243 235 221 244 280 271 273 270 261 256 252 250 249 248
129 125 116 113 97 105 91 109 130 124 98 71 61 73 41 51 57 49 71 61 58 61 48 52 48 46 332 293 294 264 230 230 228 271 325 285 281 270 262 260 255 250 249 249
110 110 96 71 67 73 76 101 96 96 88 73 76 50 47 68 67 73 64 62 59 53 53 60 70 69 51 43 342 275 249 232 212 279 304 309 300 278 266 260 252 247 248 248
98 88 74 60 53 53 60 80 95 90 78 75 68 53 77 63 73 74 64 64 54 47 56 49 55 57 37 25 18 24 5 224 239 284 309 320 332 295 279 270 261 251 248 248
87 82 75 65 60 66 63 86 100 99 84 84 73 56 75 63 66 74 72 65 60 43 48 40 32 41 42 40 56 63 76 76 313 326 313 5 16 39 304 296 220 214 227 246
78 80 72 70 72 76 79 96 99 89 89 81 74 68 60 61 65 83 87 60 45 34 37 26 40 28 45 47 73 77 74 68 60 53 36 84 69 62 81 188 192 160 165 201
62 71 76 77 81 85 92 96 92 93 93 83 69 60 60 64 63 64 53 21 22 13 17 38 51 30 59 42 50 57 62 69 53 57 52 70 68 65 47 95 109 104 103 103
52 74 85 89 91 88 105 99 87 86 88 87 72 59 54 55 39 28 6 18 54 68 70 80 80 76 72 79 74 69 69 63 61 63 66 72 69 70 67 65 64 65 62 52
68 71 83 93 89 92 94 96 75 60 55 50 37 37 54 51 32 65 93 90 83 77 72 82 78 80 76 73 67 64 66 69 65 59 63 64 63 66 66 65 61 63 66 71
70 79 84 84 74 87 87 56 53 43 19 343 335 351 71 80 103 105 95 89 84 81 76 73 72 72 71 70 66 63 65 68 68 62 59 60 61 68 74 75 70 76 77 73
70 77 88 90 89 83 79 67 37 60 69 75 78 91 115 111 111 105 100 90 83 80 78 73 69 65 56 47 49 50 49 52 54 54 53 53 53 57 60 62 65 67 71 74
71 76 75 82 85 88 86 85 96 101 97 93 94 102 108 109 102 92 82 78 76 70 70 64 55 43 41 37 32 31 32 34 37 38 39 39 41 44 45 47 48 50 51 53
81 80 80 76 78 81 85 92 96 106 102 103 106 105 106 101 94 89 79 68 55 44 36 32 27 22 17 13 13 14 17 19 18 16 15 15 16 18 19 19 18 15 10 4
93 95 99 91 89 91 92 98 108 109 104 97 92 87 78 77 75 63 39 24 15 6 1 357 354 351 351 350 348 351 352 356 359 359 356 357 357 357 357 356 354 350 346 341
327 333 79 113 105 107 112 121 123 127 131 104 26 357 345 335 323 312 315 320 323 325 326 328 331 331 328 324 325 329 330 330 331 332 334 335 337 337 336 336 335 333 328 324
285 287 287 285 286 273 259 251 248 246 250 262 277 287 294 297 297 296 296 299 301 303 307 310 311 312 310 309 309 310 310 309 313 317 318 318 318 318 317 316 315 318 321 320